Flag for U.S.A. Weather past 2 weeks in Huntsville, Alabama, U.S.A.

Now
43 °F

Passing clouds.


Feels Like: 38 °F
Forecast: 38 / 44 °F
Wind: 9 mph from West

Location: Huntsville International / Jones Field

Current Time: Jan 25, 2015 at 10:30:45 PM

Latest Report: Jan 25, 2015 at 9:53 PM


Visibility: 10 mi

Pressure: 29.78 "Hg

Humidity: 82%

Dew point: 38 °F

Location of HuntsvilleLocation

Historic Weather in Huntsville — Graph

°F

Huntsville temperature yesterday

Maximum temperature yesterday: 50 °F (at 3:53 PM)
Minimum temperature yesterday: 33 °F (at 6:53 AM)
Average temperature yesterday: 39 °F

Past Weeks' High & Low Weather Summary

 TemperatureHumidityPressure
High66 °F (Jan 19, 1:53 PM)97% (Jan 12, 4:53 AM)30.51 "Hg (Jan 12, 4:53 AM)
Low27 °F (Jan 16, 4:04 AM)24% (Jan 19, 2:53 PM)29.69 "Hg (Jan 25, 1:53 PM)
Average43 °F69%30.15 "Hg
* Reported Jan 10 8:53 PM — Jan 25 8:53 PM, Huntsville, Weather by CustomWeather, © 2014

Note: Actual official high and low records may vary slightly from our data, if they occured in-between our weather recording intervals... More about our weather records

Advertising

Huntsville weather history for previous 24 hours

 ConditionsComfort  
Time TempWeatherWind HumidityBarometerVisibility
8:53 PM
Jan 25
44 °FPartly cloudy.6 mph79%29.77 "Hg10 mi
7:53 PM47 °FPassing clouds.14 mph77%29.77 "Hg10 mi
6:53 PM48 °FPassing clouds.7 mph68%29.73 "Hg10 mi
5:53 PM50 °FPassing clouds.7 mph66%29.72 "Hg10 mi
4:53 PM55 °FScattered clouds.9 mph53%29.71 "Hg10 mi
3:53 PM55 °FPartly sunny.13 mph55%29.70 "Hg10 mi
2:53 PM58 °FMostly cloudy.14 mph47%29.69 "Hg10 mi
1:53 PM59 °FPartly sunny.12 mph44%29.69 "Hg10 mi
12:53 PM58 °FPartly sunny.13 mph46%29.70 "Hg10 mi
11:53 AM56 °FScattered clouds.12 mph51%29.75 "Hg10 mi
10:53 AM53 °FPassing clouds.9 mph56%29.80 "Hg10 mi
9:53 AM48 °FPassing clouds.10 mph63%29.84 "Hg10 mi
8:53 AM44 °FScattered clouds.8 mph71%29.87 "Hg10 mi
7:53 AM36 °FScattered clouds.6 mph82%29.88 "Hg10 mi
6:53 AM32 °FPassing clouds.7 mph85%29.88 "Hg10 mi
5:53 AM32 °FClear.7 mph85%29.89 "Hg10 mi
4:53 AM31 °FClear.6 mph85%29.89 "Hg10 mi
3:53 AM32 °FClear.5 mph82%29.90 "Hg10 mi
2:53 AM33 °FClear.3 mph82%29.92 "Hg10 mi
1:53 AM33 °FClear.5 mph82%29.94 "Hg10 mi
12:53 AM35 °FClear.3 mph78%29.95 "Hg10 mi
11:53 PM
Jan 24
35 °FClear.5 mph78%29.96 "Hg10 mi
10:53 PM34 °FClear.5 mph82%29.97 "Hg10 mi
Weather by CustomWeather, © 2014

See weather overviewHow to use our weather pages